Precipitable_Water
1.30 1.25 1.18 1.09 1.00 0.92 0.85 0.78 0.72 0.67 0.65 0.62 0.59 0.55 0.51 0.49 0.48 0.46 0.45 0.44 0.43 0.42 0.40 0.40 0.42 0.45 0.33 0.23 0.17 0.27 0.33 0.33 0.30 0.28 0.23 0.18 0.17 0.23 0.21 0.20 0.28 0.26 0.33 0.40 0.43 0.48 0.46
1.30 1.25 1.17 1.08 0.98 0.90 0.88 0.80 0.70 0.66 0.63 0.59 0.55 0.52 0.49 0.48 0.47 0.46 0.46 0.43 0.40 0.37 0.37 0.39 0.45 0.46 0.31 0.14 0.27 0.28 0.28 0.29 0.26 0.24 0.21 0.21 0.17 0.16 0.16 0.18 0.24 0.27 0.29 0.32 0.39 0.39 0.43
1.28 1.22 1.12 1.03 0.97 0.91 0.85 0.79 0.69 0.66 0.60 0.57 0.53 0.50 0.49 0.48 0.47 0.45 0.41 0.37 0.34 0.33 0.34 0.40 0.44 0.40 0.26 0.17 0.32 0.35 0.33 0.29 0.31 0.30 0.22 0.24 0.25 0.20 0.16 0.12 0.17 0.24 0.25 0.30 0.31 0.31 0.37
1.23 1.18 1.10 1.01 0.91 0.83 0.75 0.72 0.65 0.63 0.58 0.54 0.53 0.51 0.47 0.46 0.44 0.40 0.35 0.32 0.33 0.38 0.38 0.41 0.43 0.38 0.21 0.40 0.39 0.34 0.28 0.23 0.23 0.28 0.28 0.30 0.27 0.22 0.21 0.19 0.13 0.17 0.22 0.18 0.18 0.30 0.37
1.14 1.09 1.05 0.99 0.91 0.84 0.75 0.75 0.70 0.59 0.54 0.51 0.49 0.47 0.45 0.44 0.40 0.34 0.32 0.36 0.38 0.41 0.41 0.43 0.38 0.36 0.23 0.37 0.28 0.25 0.33 0.33 0.35 0.32 0.28 0.24 0.32 0.23 0.21 0.16 0.14 0.11 0.11 0.12 0.15 0.30 0.34
1.15 1.11 1.01 0.96 0.97 0.91 0.80 0.66 0.59 0.53 0.50 0.50 0.48 0.46 0.43 0.40 0.35 0.35 0.42 0.40 0.38 0.42 0.38 0.43 0.39 0.27 0.26 0.19 0.25 0.27 0.33 0.34 0.31 0.31 0.28 0.23 0.22 0.19 0.17 0.15 0.10 0.09 0.10 0.15 0.17 0.22 0.31
1.13 1.05 1.02 1.02 0.94 0.79 0.70 0.64 0.56 0.51 0.49 0.49 0.46 0.43 0.41 0.38 0.36 0.43 0.44 0.34 0.25 0.28 0.26 0.18 0.17 0.21 0.20 0.24 0.28 0.25 0.33 0.32 0.35 0.29 0.20 0.26 0.19 0.14 0.15 0.16 0.18 0.19 0.21 0.14 0.17 0.24 0.29
1.03 1.02 1.00 0.90 0.76 0.73 0.67 0.61 0.54 0.51 0.50 0.47 0.44 0.42 0.39 0.37 0.44 0.49 0.51 0.30 0.31 0.32 0.17 0.28 0.30 0.30 0.29 0.28 0.22 0.26 0.37 0.31 0.28 0.19 0.26 0.26 0.21 0.21 0.21 0.23 0.23 0.19 0.19 0.21 0.20 0.25 0.33
0.97 0.95 0.84 0.74 0.72 0.67 0.63 0.58 0.52 0.49 0.47 0.46 0.42 0.40 0.37 0.36 0.45 0.48 0.43 0.35 0.42 0.38 0.20 0.28 0.31 0.29 0.25 0.25 0.20 0.27 0.38 0.31 0.22 0.19 0.24 0.21 0.27 0.29 0.23 0.22 0.24 0.20 0.19 0.20 0.21 0.29 0.42
0.95 0.88 0.78 0.73 0.69 0.64 0.58 0.53 0.50 0.46 0.45 0.42 0.42 0.40 0.37 0.36 0.43 0.46 0.36 0.41 0.41 0.41 0.18 0.24 0.23 0.24 0.21 0.21 0.24 0.34 0.44 0.35 0.25 0.20 0.25 0.26 0.32 0.35 0.27 0.23 0.29 0.17 0.22 0.22 0.22 0.24 0.28
0.90 0.84 0.76 0.68 0.60 0.58 0.58 0.49 0.46 0.43 0.40 0.44 0.42 0.40 0.40 0.44 0.38 0.39 0.39 0.38 0.43 0.41 0.10 0.21 0.21 0.23 0.19 0.23 0.24 0.27 0.42 0.37 0.27 0.21 0.26 0.22 0.31 0.39 0.35 0.29 0.31 0.19 0.18 0.17 0.20 0.24 0.33
0.84 0.71 0.65 0.61 0.59 0.54 0.52 0.49 0.42 0.41 0.46 0.44 0.45 0.41 0.42 0.46 0.50 0.46 0.43 0.46 0.44 0.21 0.13 0.16 0.16 0.13 0.15 0.21 0.24 0.30 0.35 0.42 0.37 0.27 0.29 0.27 0.37 0.41 0.40 0.34 0.30 0.21 0.18 0.20 0.25 0.32 0.27
0.69 0.66 0.65 0.56 0.58 0.56 0.48 0.45 0.45 0.48 0.45 0.46 0.39 0.38 0.37 0.43 0.37 0.45 0.41 0.41 0.20 0.14 0.19 0.12 0.09 0.15 0.18 0.19 0.21 0.28 0.29 0.27 0.28 0.22 0.21 0.23 0.27 0.36 0.40 0.31 0.32 0.23 0.18 0.20 0.22 0.24 0.20
0.73 0.67 0.58 0.57 0.53 0.48 0.50 0.47 0.44 0.43 0.46 0.41 0.40 0.38 0.43 0.42 0.44 0.39 0.44 0.29 0.15 0.17 0.13 0.11 0.15 0.17 0.17 0.21 0.21 0.25 0.28 0.22 0.33 0.34 0.27 0.25 0.25 0.39 0.38 0.39 0.22 0.21 0.23 0.22 0.18 0.17 0.18
0.62 0.60 0.55 0.52 0.54 0.52 0.42 0.47 0.43 0.47 0.39 0.42 0.44 0.46 0.43 0.40 0.43 0.47 0.33 0.18 0.13 0.11 0.12 0.14 0.16 0.15 0.16 0.19 0.22 0.24 0.28 0.27 0.30 0.34 0.28 0.25 0.25 0.38 0.41 0.47 0.38 0.23 0.23 0.32 0.26 0.28 0.20
0.63 0.53 0.51 0.52 0.49 0.48 0.47 0.43 0.47 0.40 0.43 0.40 0.40 0.41 0.40 0.47 0.41 0.43 0.24 0.15 0.14 0.16 0.17 0.19 0.14 0.17 0.14 0.18 0.19 0.22 0.24 0.30 0.26 0.35 0.42 0.34 0.24 0.35 0.39 0.44 0.34 0.24 0.27 0.21 0.25 0.18 0.19
0.59 0.60 0.59 0.57 0.55 0.47 0.42 0.44 0.42 0.40 0.40 0.47 0.42 0.35 0.48 0.46 0.47 0.35 0.18 0.20 0.17 0.18 0.20 0.19 0.16 0.16 0.18 0.18 0.20 0.24 0.23 0.27 0.28 0.31 0.37 0.35 0.31 0.27 0.40 0.37 0.31 0.29 0.26 0.28 0.38 0.31 0.24
0.63 0.56 0.56 0.54 0.46 0.52 0.44 0.42 0.41 0.42 0.42 0.47 0.40 0.28 0.45 0.31 0.28 0.31 0.23 0.19 0.21 0.19 0.25 0.22 0.23 0.19 0.19 0.20 0.19 0.22 0.24 0.26 0.30 0.36 0.29 0.37 0.32 0.23 0.27 0.38 0.39 0.36 0.32 0.32 0.28 0.27 0.27
0.58 0.60 0.57 0.47 0.51 0.52 0.43 0.40 0.42 0.43 0.48 0.45 0.35 0.33 0.39 0.39 0.25 0.25 0.25 0.21 0.21 0.21 0.18 0.21 0.20 0.23 0.26 0.20 0.18 0.23 0.27 0.29 0.27 0.29 0.36 0.38 0.29 0.20 0.23 0.27 0.37 0.36 0.33 0.32 0.32 0.33 0.26
0.60 0.53 0.49 0.51 0.51 0.46 0.40 0.40 0.42 0.44 0.48 0.46 0.34 0.23 0.33 0.33 0.29 0.24 0.20 0.20 0.19 0.26 0.23 0.21 0.23 0.27 0.22 0.19 0.22 0.21 0.22 0.25 0.25 0.25 0.36 0.36 0.33 0.31 0.23 0.28 0.36 0.29 0.30 0.30 0.27 0.26 0.25
0.51 0.49 0.50 0.45 0.48 0.43 0.38 0.40 0.41 0.46 0.50 0.47 0.33 0.29 0.28 0.24 0.26 0.24 0.19 0.19 0.17 0.19 0.25 0.24 0.22 0.23 0.20 0.16 0.18 0.21 0.19 0.15 0.21 0.25 0.29 0.29 0.24 0.32 0.32 0.36 0.40 0.38 0.33 0.33 0.25 0.26 0.24
0.51 0.54 0.45 0.51 0.44 0.41 0.36 0.38 0.42 0.48 0.48 0.41 0.24 0.31 0.31 0.28 0.25 0.22 0.21 0.19 0.19 0.19 0.20 0.18 0.20 0.21 0.19 0.18 0.22 0.20 0.19 0.17 0.20 0.27 0.24 0.28 0.22 0.28 0.28 0.36 0.35 0.34 0.36 0.33 0.31 0.32 0.37
0.56 0.52 0.50 0.49 0.45 0.42 0.37 0.39 0.43 0.50 0.50 0.39 0.40 0.38 0.32 0.28 0.25 0.24 0.25 0.21 0.20 0.22 0.23 0.24 0.21 0.19 0.21 0.26 0.28 0.24 0.23 0.33 0.32 0.29 0.30 0.27 0.25 0.23 0.21 0.27 0.32 0.31 0.36 0.34 0.39 0.43 0.39
0.59 0.57 0.59 0.47 0.45 0.43 0.41 0.38 0.43 0.50 0.52 0.48 0.42 0.37 0.27 0.21 0.25 0.24 0.26 0.25 0.23 0.24 0.23 0.28 0.29 0.25 0.29 0.31 0.28 0.27 0.32 0.35 0.35 0.34 0.35 0.28 0.26 0.26 0.22 0.27 0.18 0.36 0.46 0.48 0.44 0.45 0.50
0.56 0.59 0.59 0.51 0.45 0.44 0.42 0.39 0.42 0.49 0.54 0.49 0.47 0.40 0.31 0.22 0.26 0.23 0.26 0.29 0.26 0.28 0.28 0.29 0.34 0.35 0.34 0.30 0.20 0.17 0.22 0.27 0.31 0.36 0.35 0.36 0.31 0.25 0.22 0.21 0.30 0.34 0.37 0.35 0.37 0.37 0.47
0.60 0.58 0.53 0.48 0.45 0.43 0.43 0.39 0.42 0.48 0.53 0.51 0.49 0.52 0.40 0.24 0.24 0.31 0.26 0.29 0.26 0.28 0.27 0.30 0.36 0.36 0.35 0.28 0.20 0.16 0.19 0.25 0.24 0.27 0.35 0.36 0.35 0.28 0.24 0.19 0.19 0.31 0.37 0.44 0.46 0.27 0.45
0.56 0.54 0.54 0.53 0.50 0.47 0.46 0.42 0.43 0.48 0.52 0.51 0.47 0.52 0.40 0.26 0.32 0.34 0.27 0.28 0.32 0.29 0.25 0.30 0.30 0.28 0.34 0.25 0.20 0.20 0.22 0.28 0.23 0.24 0.26 0.24 0.27 0.23 0.23 0.21 0.29 0.39 0.40 0.42 0.25 0.29 0.45
0.58 0.55 0.54 0.51 0.50 0.49 0.48 0.46 0.44 0.48 0.51 0.51 0.48 0.53 0.39 0.28 0.29 0.36 0.37 0.33 0.31 0.30 0.24 0.29 0.27 0.30 0.26 0.22 0.24 0.23 0.23 0.23 0.25 0.33 0.31 0.27 0.24 0.23 0.24 0.20 0.20 0.41 0.38 0.28 0.38 0.46 0.48
0.59 0.57 0.56 0.50 0.50 0.47 0.44 0.44 0.42 0.46 0.50 0.50 0.42 0.56 0.54 0.36 0.32 0.42 0.39 0.41 0.37 0.35 0.33 0.32 0.28 0.26 0.29 0.24 0.27 0.27 0.23 0.27 0.26 0.24 0.35 0.28 0.30 0.27 0.27 0.27 0.39 0.42 0.40 0.46 0.47 0.44 0.45
Wind_Speed
36 34 32 30 29 28 27 26 25 24 23 23 23 23 23 23 23 24 25 25 26 27 28 29 29 29 27 26 28 30 30 30 31 32 33 33 34 34 37 34 37 45 41 43 43 41 44
36 34 34 32 31 29 28 27 26 25 25 24 23 23 23 24 24 25 26 27 28 28 29 30 30 29 28 28 28 30 32 34 35 35 36 36 37 37 42 42 40 38 44 45 43 46 46
34 34 33 32 31 30 29 28 27 26 25 25 24 24 24 25 25 25 26 27 27 27 28 28 28 28 29 32 31 31 32 34 34 36 39 40 40 41 38 42 41 44 44 43 48 49 47
37 34 33 32 32 31 31 29 28 27 25 25 24 24 24 24 25 25 26 27 27 27 27 27 27 28 29 30 30 32 34 38 39 39 40 40 44 46 44 46 50 44 40 45 54 46 45
38 35 33 32 31 31 29 29 28 27 26 25 25 24 23 24 24 25 26 26 26 26 26 27 27 26 28 27 29 35 37 40 43 44 44 43 40 44 46 46 47 49 49 52 48 40 42
37 36 34 33 31 31 30 27 27 25 25 25 24 23 23 23 24 24 24 25 24 23 23 24 25 27 27 31 34 37 40 44 45 46 45 43 42 43 48 47 49 51 50 43 42 39 42
39 33 34 33 32 28 28 27 25 24 24 23 22 22 21 22 22 21 21 19 20 20 23 24 26 28 31 32 37 36 43 42 40 43 46 45 45 46 47 51 51 48 43 46 43 39 36
39 37 34 32 29 28 27 25 24 24 23 21 20 20 20 20 19 19 18 17 18 21 24 24 25 26 30 35 38 40 39 41 42 43 39 42 46 45 45 45 49 49 47 43 40 36 36
40 37 33 32 29 27 25 25 23 22 21 21 20 19 19 19 18 17 16 17 19 21 21 22 22 24 29 33 37 37 40 34 32 32 32 31 30 33 36 39 43 49 46 41 37 27 22
37 34 32 31 29 26 25 24 23 21 20 19 19 18 18 17 16 16 14 18 19 20 17 18 20 22 31 34 26 36 33 28 24 22 19 17 20 23 28 31 35 39 42 38 38 34 23
34 33 32 29 28 25 23 22 22 21 19 18 17 17 17 15 15 13 16 19 18 17 14 17 20 26 32 26 34 27 29 22 23 17 12 15 22 23 21 28 28 33 38 34 34 28 22
32 31 28 27 26 24 22 20 20 20 19 18 17 16 15 13 13 15 16 16 15 14 12 17 24 29 28 24 27 27 21 16 15 11 13 18 15 17 13 16 22 27 30 22 20 21 21
31 30 29 26 25 24 22 20 20 19 18 16 15 14 14 13 11 14 14 13 13 12 19 20 25 27 24 21 21 22 21 16 9 9 13 18 20 16 9 9 17 26 23 17 14 15 18
29 28 27 25 24 22 21 19 17 16 15 14 14 13 11 11 10 11 11 11 12 14 17 22 23 24 19 21 15 18 18 14 11 14 14 13 24 11 2 3 10 21 20 15 11 15 14
26 26 26 25 23 22 21 18 16 15 14 12 12 10 9 9 10 9 9 10 11 14 17 19 22 17 17 16 13 13 13 10 12 14 14 13 13 10 5 3 7 18 19 16 11 8 9
26 25 25 24 23 21 21 18 16 14 12 10 10 9 8 7 7 8 8 10 11 12 15 17 18 16 15 14 12 12 12 9 15 14 16 11 12 12 8 4 7 15 15 11 8 8 9
27 25 23 24 23 21 20 18 15 14 11 10 8 7 7 8 7 7 7 9 10 13 13 14 15 14 13 12 11 12 11 8 16 14 13 11 8 7 3 4 4 6 14 11 9 7 4
25 24 24 24 23 22 19 17 15 13 11 9 8 7 7 6 6 6 7 8 8 11 13 12 12 12 11 12 8 10 10 12 17 15 13 9 6 8 5 8 6 9 11 14 10 6 6
23 23 23 22 22 21 19 17 14 12 10 9 8 7 6 6 5 7 6 8 8 8 11 10 10 10 11 10 9 11 12 14 17 17 13 10 6 6 6 4 4 7 9 15 15 8 5
24 23 23 22 22 20 18 17 15 12 11 9 7 6 6 6 6 6 6 6 7 5 8 10 10 8 10 10 12 13 15 15 18 16 12 9 6 3 5 7 10 10 9 9 13 11 9
24 24 23 23 22 20 19 17 15 13 11 9 7 8 7 7 6 5 6 7 8 6 7 9 8 10 11 10 14 12 18 20 16 10 11 8 7 8 11 10 8 13 7 6 7 7 10
25 25 23 23 22 21 19 18 16 13 12 10 8 7 7 8 5 5 4 5 5 6 8 7 8 11 12 12 14 17 19 18 13 9 12 9 7 8 6 8 3 2 3 4 5 4 8
26 24 25 23 23 21 20 18 16 14 13 10 9 9 8 8 6 5 5 5 6 6 6 9 10 10 11 12 16 18 16 16 16 17 14 8 6 6 4 9 3 7 3 2 3 2 8
26 26 26 23 23 21 19 19 17 15 14 12 10 9 7 8 6 5 6 6 6 6 8 9 9 9 12 16 17 13 11 11 12 13 10 7 5 4 4 5 2 5 8 12 11 12 9
26 26 26 25 24 22 20 20 18 16 14 12 11 10 9 9 8 7 6 7 7 8 8 7 8 11 13 12 10 9 8 8 8 10 2 5 5 4 2 4 3 8 8 6 5 3 6
26 26 25 25 24 23 21 20 19 17 16 14 11 11 10 9 9 8 9 6 6 8 8 7 11 12 10 7 7 6 5 7 6 10 8 3 5 4 5 4 2 5 12 11 7 2 6
25 25 25 25 23 22 22 21 20 18 16 15 14 12 10 10 10 8 6 7 8 8 9 9 11 9 8 7 5 5 6 8 5 9 8 4 3 2 5 6 4 10 12 8 4 7 7
26 24 23 24 23 22 22 21 21 19 17 15 13 13 12 11 12 11 9 8 8 7 8 11 9 8 8 6 6 6 5 6 5 5 7 5 3 3 4 4 6 12 7 4 7 6 6
27 25 24 21 21 22 21 21 20 20 19 16 13 12 12 11 11 12 14 14 13 12 9 9 9 9 8 6 6 6 6 5 6 2 6 4 3 1 3 3 6 7 6 6 6 6 7
Wind_Direction
261 262 262 261 263 267 268 267 267 268 268 268 270 272 274 277 280 282 285 288 290 291 292 292 292 292 292 287 284 287 290 287 284 280 275 272 271 270 261 262 255 255 256 254 254 252 252
260 258 258 258 261 264 265 265 265 265 266 267 269 271 274 277 281 284 286 288 290 291 292 291 291 290 288 289 287 290 288 289 286 282 278 274 270 267 268 264 257 258 257 255 253 251 250
257 257 257 256 259 260 264 263 262 264 265 265 268 271 274 278 281 286 289 292 293 293 294 293 292 290 289 286 291 291 291 289 288 285 279 275 271 267 266 268 262 258 258 256 251 250 248
255 256 255 257 257 259 260 260 260 262 263 264 268 271 274 278 282 287 290 292 292 293 294 293 293 292 290 291 292 292 294 294 289 284 282 280 271 267 263 262 259 260 257 253 251 247 245
252 252 253 257 257 255 258 257 258 258 260 263 267 270 275 279 284 288 291 292 291 292 292 290 294 292 293 296 296 297 298 296 294 288 283 280 276 266 265 262 257 248 250 248 253 244 244
249 249 252 255 257 255 254 254 255 256 258 261 265 269 274 280 286 289 293 293 291 292 294 293 290 295 291 298 300 299 299 298 294 293 285 280 277 270 261 254 250 250 251 252 250 243 242
244 249 252 253 255 253 252 253 251 253 256 259 263 268 274 281 286 290 296 293 298 294 301 295 292 295 296 301 303 303 302 300 298 294 285 280 273 266 264 256 254 254 255 247 245 244 241
244 248 250 248 249 250 248 248 249 251 253 256 263 269 275 281 284 290 295 299 298 297 304 298 293 296 298 304 304 305 305 301 299 293 290 282 268 268 265 259 251 247 247 248 243 240 244
241 243 244 243 244 244 248 244 245 248 250 255 263 270 274 279 283 286 293 304 305 306 305 301 299 303 309 310 308 310 312 306 301 301 295 286 278 276 262 260 249 238 237 241 237 234 239
233 235 237 237 240 241 245 241 243 245 250 253 263 269 273 279 278 287 295 304 307 310 307 301 307 309 314 313 312 317 314 306 304 304 298 295 297 282 270 257 243 236 230 235 232 233 232
230 232 232 232 234 235 238 237 239 243 247 255 262 268 273 275 276 285 296 306 305 310 311 312 316 314 318 320 317 319 314 303 297 284 291 290 301 301 266 253 237 233 218 227 230 228 224
224 225 225 225 229 227 234 239 234 240 248 255 261 268 270 267 275 284 299 305 309 309 309 312 321 320 320 321 325 324 327 311 295 283 273 289 302 310 287 257 232 213 210 225 223 213 225
221 221 222 223 223 226 229 234 236 241 248 253 260 265 266 268 271 294 300 306 310 313 320 321 321 322 320 325 327 340 341 348 357 318 309 300 302 288 261 244 220 200 201 203 208 214 224
215 216 218 217 219 223 227 228 231 236 244 253 261 263 260 262 284 296 303 311 312 322 326 323 321 322 329 334 325 340 348 354 352 342 321 327 327 322 285 234 211 200 198 194 207 205 208
215 212 212 215 218 220 221 223 229 231 241 251 256 253 255 270 283 292 305 310 314 320 326 323 323 336 328 329 329 342 356 354 345 339 328 322 341 346 293 318 215 180 190 204 213 200 212
209 210 211 214 216 216 217 219 219 225 235 246 246 251 254 265 279 292 304 303 321 330 328 325 336 337 329 331 340 351 347 346 339 338 324 311 317 338 287 283 183 186 188 197 215 221 221
209 209 212 211 212 212 213 212 215 221 229 238 238 251 253 265 271 293 297 307 322 324 325 329 332 332 327 329 335 342 346 338 347 332 330 314 316 326 325 156 148 164 195 188 184 208 202
204 208 208 207 208 207 208 208 213 218 226 229 239 246 251 244 275 284 300 313 320 323 328 335 325 330 329 322 322 338 333 338 349 348 338 328 305 320 275 261 247 237 201 201 197 211 207
204 201 202 204 201 203 204 208 210 214 220 230 239 239 249 237 269 286 292 312 315 330 336 340 329 334 332 325 320 317 324 326 345 348 350 334 309 324 348 331 20 196 227 205 211 204 208
200 201 202 201 201 200 204 206 210 214 220 225 236 240 246 245 260 274 313 316 325 336 335 339 332 344 333 325 320 308 314 318 327 326 328 340 322 300 293 288 252 253 270 250 209 210 211
205 201 201 201 200 204 206 207 211 216 217 220 233 240 238 249 261 281 294 301 307 343 346 341 336 354 342 326 320 319 317 320 322 312 322 335 319 314 308 307 253 225 244 244 208 232 219
202 201 204 202 204 206 207 209 212 215 216 221 224 235 245 258 240 254 273 292 338 341 340 322 339 338 335 324 320 315 315 311 302 300 319 307 298 318 341 342 198 119 210 221 202 222 175
202 203 201 203 205 206 208 210 211 216 215 224 232 242 238 249 246 250 255 284 302 309 313 318 319 318 319 328 323 312 303 298 286 285 290 277 291 311 292 334 177 56 1 188 108 34 224
204 205 204 206 207 208 210 211 213 218 220 227 231 237 237 241 245 256 270 282 291 305 302 300 307 320 322 323 322 320 307 304 307 285 245 253 278 260 267 324 110 82 53 84 91 58 68
204 206 207 208 209 210 211 213 215 217 218 220 230 233 236 238 254 262 281 277 289 302 302 307 317 317 322 325 338 345 349 1 5 20 294 246 246 255 238 270 206 21 354 311 317 32 23
205 205 206 207 208 209 213 214 215 218 220 222 229 234 236 237 238 272 270 284 284 294 297 302 314 314 320 326 343 345 347 344 351 357 1 265 229 235 268 258 254 316 319 307 271 269 322
201 203 205 206 209 212 213 214 215 217 220 223 230 233 237 239 240 257 258 267 276 291 286 294 312 317 326 324 323 325 337 346 348 357 2 4 280 275 268 249 224 319 316 299 259 275 301
201 201 203 206 209 212 214 214 215 217 219 224 230 231 233 239 247 251 258 267 278 285 289 294 303 300 306 323 315 312 322 328 341 8 347 358 351 297 284 272 263 327 303 290 283 286 295
203 203 204 204 207 210 212 213 214 215 218 219 226 230 234 237 240 258 259 260 262 271 287 293 286 293 290 297 301 295 299 312 318 333 12 22 341 275 325 274 293 305 298 294 283 289 303